Stations météo

réclame
Mon MeteoGroup
Hoogeveen aws, Pays-Bas (6279): Température de l'air & dewpoint: 10.07.2019 22:00:00 - 16.07.2019 22:00:00 (CEST)Hoogeveen aws, Pays-Bas (6279): Température de l'air 5cm: 10.07.2019 22:00:00 - 16.07.2019 22:00:00 (CEST)Hoogeveen aws, Pays-Bas (6279): Vitesse du vent & gusts: 10.07.2019 22:00:00 - 16.07.2019 22:00:00 (CEST)Hoogeveen aws, Pays-Bas (6279): Direction du vent: 10.07.2019 22:00:00 - 16.07.2019 22:00:00 (CEST)Hoogeveen aws, Pays-Bas (6279): reduced air pressure: 10.07.2019 22:00:00 - 16.07.2019 22:00:00 (CEST)Hoogeveen aws, Pays-Bas (6279): visibility: 10.07.2019 22:00:00 - 16.07.2019 22:00:00 (CEST)Hoogeveen aws, Pays-Bas (6279): Quantités de précipitations: 10.07.2019 22:00:00 - 16.07.2019 22:00:00 (CEST)
Date & Time tt [°C] td [°C] tt 5cm [°C] ff [km/h] ff [knt] fx [km/h] fx [knt] dd ppp [hPa] vv [km] rr [mm]
16.07.2019 22:00:00 15,0 12,5 - 4 2 14 8 NW 1018,0 27 0,0
16.07.2019 21:00:00 15,6 12,4 - 11 6 14 8 NW 1018,1 28 0,0
16.07.2019 20:00:00 15,7 12,6 - 7 4 18 10 W 1018,1 26 0,0
16.07.2019 19:00:00 16,0 12,8 - 11 6 18 10 W 1018,2 30 0,0
16.07.2019 18:00:00 16,3 12,7 - 7 4 18 10 W 1018,2 38 0,0
16.07.2019 17:00:00 16,4 12,7 - 11 6 22 12 W 1018,4 36 0,0
16.07.2019 16:00:00 16,6 12,8 - 14 8 22 12 NW 1018,6 25 0,0
16.07.2019 15:00:00 16,1 12,8 - 14 8 25 14 WNW 1018,5 28 0,0
16.07.2019 14:00:00 16,1 12,5 - 14 8 25 14 W 1018,7 39 0,0
16.07.2019 13:00:00 15,6 12,4 - 14 8 22 12 W 1018,8 32 0,0
16.07.2019 12:00:00 16,0 12,8 - 14 8 25 14 NW 1018,9 25 0,0
16.07.2019 11:00:00 15,1 12,6 - 11 6 22 12 WNW 1019,0 26 0,0
16.07.2019 10:00:00 14,4 12,0 15,0 18 10 25 14 NW 1018,8 27 0,0
16.07.2019 09:00:00 14,0 11,8 14,3 14 8 22 12 NW 1018,8 22 0,0
16.07.2019 08:00:00 13,7 11,9 13,8 11 6 22 12 WNW 1018,6 21 0,0
16.07.2019 07:00:00 13,5 11,6 13,6 7 4 18 10 W 1018,6 22 0,0
16.07.2019 06:00:00 13,5 11,1 13,5 11 6 22 12 NW 1018,6 29 0,0
16.07.2019 05:00:00 13,6 10,7 13,5 11 6 29 16 WNW 1018,5 42 0,0
16.07.2019 04:00:00 13,7 11,2 13,6 11 6 18 10 WNW 1018,8 48 0,0
16.07.2019 03:00:00 13,7 11,5 13,6 11 6 18 10 WNW 1019,0 46 0,0
16.07.2019 02:00:00 13,5 11,9 13,4 11 6 14 8 W 1019,2 42 0,0
16.07.2019 01:00:00 13,5 11,7 13,4 7 4 14 8 W 1019,2 47 0,0
16.07.2019 00:00:00 13,6 11,8 13,7 11 6 18 10 NW 1019,5 19 0,0
15.07.2019 23:00:00 14,1 11,7 14,1 11 6 22 12 NW 1019,6 42 0,0
15.07.2019 22:00:00 14,4 11,2 14,5 14 8 22 12 NW 1019,6 33 0,0
15.07.2019 21:00:00 15,2 10,5 15,3 14 8 25 14 NNW 1019,3 42 0,0
15.07.2019 20:00:00 16,0 10,3 16,0 14 8 29 16 NNW 1019,2 33 0,0
15.07.2019 19:00:00 16,8 9,5 18,0 14 8 29 16 NNW 1019,3 34 0,0
15.07.2019 18:00:00 18,4 9,4 20,7 18 10 29 16 WNW 1019,3 31 0,0
15.07.2019 17:00:00 17,8 9,7 19,1 18 10 32 18 NW 1019,3 39 0,0
15.07.2019 16:00:00 18,7 11,1 19,7 22 12 29 16 NNW 1019,3 41 0,0
15.07.2019 15:00:00 18,2 11,2 18,7 14 8 32 18 WNW 1019,4 44 0,0
15.07.2019 14:00:00 17,8 10,4 19,8 14 8 25 14 WNW 1019,6 37 0,0
15.07.2019 13:00:00 16,5 9,6 18,0 11 6 22 12 W 1019,8 25 0,0
15.07.2019 12:00:00 16,0 10,3 16,0 11 6 22 12 NW 1019,9 22 0,0
15.07.2019 11:00:00 14,3 9,6 14,7 11 6 18 10 NW 1020,1 32 0,0
15.07.2019 10:00:00 13,7 10,9 14,2 7 4 18 10 WNW 1020,1 33 0,0
15.07.2019 09:00:00 12,5 11,3 12,7 7 4 22 12 NW 1020,0 11 0,0
15.07.2019 08:00:00 13,4 10,2 13,6 7 4 14 8 WNW 1019,8 23 0,0
15.07.2019 07:00:00 12,9 10,3 12,9 7 4 14 8 WNW 1019,8 22 0,0
15.07.2019 06:00:00 12,8 10,4 12,7 7 4 14 8 NW 1019,8 18 0,0
15.07.2019 05:00:00 12,9 10,4 12,8 11 6 14 8 WNW 1019,6 15 0,0
15.07.2019 04:00:00 13,1 10,7 13,0 7 4 18 10 NW 1019,8 25 0,0
15.07.2019 03:00:00 13,3 11,0 13,2 7 4 14 8 NW 1020,4 24 0,0
15.07.2019 02:00:00 13,5 10,9 13,5 14 8 22 12 NW 1020,5 26 0,0
15.07.2019 01:00:00 13,7 11,2 13,6 7 4 14 8 NNW 1020,4 22 0,0
15.07.2019 00:00:00 13,8 11,5 13,7 7 4 18 10 NNW 1020,7 18 0,0
14.07.2019 23:00:00 14,1 11,1 14,1 7 4 14 8 NNW 1020,6 20 0,0
14.07.2019 22:00:00 14,7 10,3 14,5 11 6 18 10 NNW 1020,6 25 0,0
14.07.2019 21:00:00 15,0 10,4 15,0 11 6 18 10 NNW 1020,3 36 0,0
14.07.2019 20:00:00 15,3 10,3 15,6 11 6 22 12 NW 1020,1 40 0,0
14.07.2019 19:00:00 15,6 10,0 16,0 18 10 25 14 NW 1020,1 35 0,0
14.07.2019 18:00:00 15,9 10,5 16,4 14 8 25 14 NNW 1020,3 36 0,0
14.07.2019 17:00:00 16,2 11,0 17,4 14 8 25 14 N 1020,3 31 0,0
14.07.2019 16:00:00 16,2 10,8 17,4 14 8 25 14 NNW 1020,4 44 0,0
14.07.2019 15:00:00 17,4 11,0 19,4 18 10 29 16 NW 1020,3 36 0,0
14.07.2019 14:00:00 16,2 11,2 17,5 18 10 29 16 N 1020,4 45 0,0
14.07.2019 13:00:00 15,9 11,1 17,4 14 8 25 14 N 1020,4 47 0,0
14.07.2019 12:00:00 15,4 12,3 16,7 11 6 25 14 N 1020,4 36 0,0
14.07.2019 11:00:00 14,9 12,1 15,5 11 6 22 12 NNW 1020,2 41 0,0
14.07.2019 10:00:00 13,7 12,0 14,3 14 8 22 12 NNW 1020,0 9 0,0
14.07.2019 09:00:00 13,6 11,7 13,9 7 4 14 8 NNW 1019,7 21 0,0
14.07.2019 08:00:00 13,2 11,6 13,1 7 4 18 10 NNW 1019,6 25 0,0
14.07.2019 07:00:00 12,8 11,6 12,7 7 4 14 8 WNW 1019,3 18 0,0
14.07.2019 06:00:00 12,4 12,0 12,5 7 4 18 10 WNW 1019,4 11 0,0
14.07.2019 05:00:00 12,3 12,0 12,4 7 4 18 10 NW 1019,5 7 0,2
14.07.2019 04:00:00 13,1 10,8 13,1 7 4 22 12 NW 1019,5 26 0,0
14.07.2019 03:00:00 13,5 10,3 13,4 7 4 14 8 WNW 1019,7 23 0,0
14.07.2019 02:00:00 13,7 9,9 13,6 11 6 14 8 WNW 1019,8 29 0,0
14.07.2019 01:00:00 13,9 9,7 13,9 11 6 25 14 NW 1019,9 31 0,0
14.07.2019 00:00:00 14,3 10,3 14,3 11 6 25 14 NW 1019,9 34 0,0
13.07.2019 23:00:00 14,7 11,0 14,7 14 8 25 14 NW 1019,9 38 0,0
13.07.2019 22:00:00 15,1 11,1 15,1 11 6 25 14 NNW 1019,7 47 0,0
13.07.2019 21:00:00 15,6 11,2 15,6 14 8 29 16 NNW 1019,4 39 0,0
13.07.2019 20:00:00 15,7 12,8 16,1 14 8 36 19 NNW 1018,9 38 0,0
13.07.2019 19:00:00 16,2 12,5 16,8 14 8 29 16 NNW 1018,6 45 0,0
13.07.2019 18:00:00 16,7 11,7 17,6 22 12 36 19 NW 1018,6 40 0,0
13.07.2019 17:00:00 19,6 11,8 20,3 22 12 36 19 NNW 1018,2 34 0,0
13.07.2019 16:00:00 19,8 12,2 21,2 22 12 32 18 NNW 1017,9 43 0,0
13.07.2019 15:00:00 20,2 13,1 21,5 22 12 32 18 NW 1018,0 40 0,0
13.07.2019 14:00:00 19,4 13,0 20,8 18 10 25 14 NNW 1017,9 45 0,0
13.07.2019 13:00:00 20,5 12,9 23,0 14 8 25 14 NW 1017,6 41 0,0
13.07.2019 12:00:00 18,7 13,5 20,7 14 8 29 16 NNW 1017,7 44 0,0
13.07.2019 11:00:00 18,1 13,2 19,5 14 8 25 14 NNW 1017,6 45 0,0
13.07.2019 10:00:00 17,7 14,5 18,2 14 8 22 12 NNW 1017,2 33 0,0
13.07.2019 09:00:00 15,2 13,8 15,5 14 8 25 14 NNW 1017,0 14 0,0
13.07.2019 08:00:00 15,1 14,0 15,3 14 8 22 12 NW 1016,5 20 0,0
13.07.2019 07:00:00 14,8 13,9 14,8 11 6 18 10 NW 1015,9 12 0,0
13.07.2019 06:00:00 14,8 13,8 14,7 11 6 - - WNW 1015,5 15 -
13.07.2019 05:00:00 - - - - - - - - - - -
13.07.2019 04:00:00 - - - - - - - - - - -
13.07.2019 03:00:00 14,6 14,4 14,3 7 4 14 8 NW 1014,7 7 0,0
13.07.2019 02:00:00 15,1 14,6 14,9 11 6 14 8 WNW 1014,6 11 0,0
13.07.2019 01:00:00 14,7 14,6 13,8 7 4 11 6 WNW 1014,6 9 0,0
13.07.2019 00:00:00 14,7 14,0 14,2 7 4 7 4 NW 1014,1 24 0,0
12.07.2019 23:00:00 15,9 14,5 15,6 7 4 14 8 N 1013,7 47 0,0
12.07.2019 22:00:00 16,4 14,6 16,1 11 6 14 8 NNW 1013,2 47 0,0
12.07.2019 21:00:00 17,7 16,3 17,8 7 4 14 8 NW 1012,7 12 0,0
12.07.2019 20:00:00 18,1 15,9 18,7 11 6 18 10 NW 1012,0 17 0,0
12.07.2019 19:00:00 18,3 16,1 18,9 14 8 25 14 NW 1011,5 13 0,7
12.07.2019 18:00:00 16,9 16,2 17,3 11 6 29 16 NW 1011,2 4,2 3,2
12.07.2019 17:00:00 18,7 12,5 19,8 18 10 29 16 NW 1011,3 28 0,0
12.07.2019 16:00:00 19,8 15,3 21,0 18 10 36 19 W 1010,9 21 0,0
12.07.2019 15:00:00 20,4 15,3 21,0 18 10 29 16 W 1010,4 14 0,0
12.07.2019 14:00:00 21,4 16,2 22,2 7 4 29 16 NNW 1010,1 12 0,0
12.07.2019 13:00:00 22,5 15,3 25,9 7 4 14 8 SSE 1010,1 13 0,0
12.07.2019 12:00:00 20,9 14,7 23,4 4 2 14 8 W 1010,4 16 0,0
12.07.2019 11:00:00 20,1 14,6 23,3 7 4 14 8 S 1010,6 14 0,0
12.07.2019 10:00:00 19,2 15,6 21,0 4 2 7 4 S 1010,8 13 0,0
12.07.2019 09:00:00 16,8 15,7 18,8 4 2 7 4 S 1011,0 8 0,0
12.07.2019 08:00:00 14,9 14,9 15,9 0 0 7 4 N 1011,0 0,5 0,0
12.07.2019 07:00:00 13,7 13,7 13,9 4 2 7 4 SE 1010,8 0,4 0,0
12.07.2019 06:00:00 13,0 13,0 12,1 4 2 7 4 SSW 1010,9 0,1 0,0
12.07.2019 05:00:00 12,8 12,8 11,7 4 2 7 4 SSE 1010,6 0,1 0,0
12.07.2019 04:00:00 13,3 13,1 12,8 7 4 7 4 SSW 1010,9 0,1 0,0
12.07.2019 03:00:00 15,3 15,1 15,2 4 2 11 6 W 1011,3 3,4 0,0
12.07.2019 02:00:00 15,3 14,9 15,0 7 4 11 6 WSW 1011,4 4,4 0,0
12.07.2019 01:00:00 15,1 14,8 14,1 7 4 11 6 W 1011,7 3,8 0,0
12.07.2019 00:00:00 15,3 14,6 14,9 4 2 11 6 WSW 1011,8 8 0,0
11.07.2019 23:00:00 16,3 15,3 15,9 7 4 14 8 W 1011,8 8 0,0
11.07.2019 22:00:00 17,4 16,1 17,3 7 4 11 6 W 1011,7 9 0,0
11.07.2019 21:00:00 18,0 16,5 18,2 7 4 14 8 W 1011,4 9 0,0
11.07.2019 20:00:00 19,4 15,4 19,7 7 4 22 12 W 1011,3 22 0,0
11.07.2019 19:00:00 20,3 15,4 20,5 14 8 18 10 WNW 1011,2 13 0,0
11.07.2019 18:00:00 20,8 15,8 22,2 4 2 11 6 WSW 1011,3 13 0,0
11.07.2019 17:00:00 21,0 16,3 23,0 7 4 14 8 WNW 1011,4 11 0,0
11.07.2019 16:00:00 20,0 15,6 21,2 4 2 11 6 W 1011,7 9 0,0
11.07.2019 15:00:00 20,0 17,2 21,4 4 2 11 6 NNW 1011,6 8 0,0
11.07.2019 14:00:00 19,2 17,1 20,6 7 4 22 12 S 1012,1 7 0,0
11.07.2019 13:00:00 18,0 17,3 18,4 14 8 22 12 S 1012,1 3,9 1,0
11.07.2019 12:00:00 16,4 15,8 16,6 11 6 18 10 S 1012,6 4,9 1,7
11.07.2019 11:00:00 16,1 15,6 16,4 14 8 22 12 SSW 1013,0 2,7 1,6
11.07.2019 10:00:00 16,6 15,7 17,1 11 6 18 10 SSW 1013,1 4,1 0,0
11.07.2019 09:00:00 15,9 15,0 16,5 11 6 14 8 S 1013,1 4,5 0,0
11.07.2019 08:00:00 14,8 14,6 14,9 7 4 11 6 SSE 1013,1 2,3 0,9
11.07.2019 07:00:00 13,9 13,6 13,9 4 2 11 6 S 1013,6 2,6 0,3
11.07.2019 06:00:00 13,5 13,1 13,4 7 4 11 6 SSE 1013,8 3,4 0,0
11.07.2019 05:00:00 12,9 12,6 12,5 7 4 11 6 SSE 1014,1 3,3 0,0
11.07.2019 04:00:00 12,7 12,4 12,4 7 4 11 6 SSE 1014,5 3,8 0,3
11.07.2019 03:00:00 12,9 12,1 12,5 7 4 11 6 S 1015,3 6 0,0
11.07.2019 02:00:00 12,3 11,7 11,7 7 4 7 4 S 1015,8 6 0,0
11.07.2019 01:00:00 12,4 11,7 11,8 7 4 11 6 SSE 1016,0 8 0,0
11.07.2019 00:00:00 13,4 12,2 13,1 7 4 11 6 S 1016,7 10 0,0
10.07.2019 23:00:00 13,4 12,3 13,1 4 2 11 6 S 1017,1 10 0,0
10.07.2019 22:00:00 13,6 12,3 13,5 4 2 11 6 S 1017,4 12 0,0

tt = Température de l'air
td = dewpoint
tt 5cm = Température de l'air 5cm
ff = Vitesse du vent
fx = gusts
dd = Direction du vent
ppp = reduced air pressure
vv = visibility
rr = Quantités de précipitations

stations d'obs. à proximité